Home   Weather   Munich   Past weeks
Flag for Germany

Past Weather in Munich, Bavaria, Germany — Yesterday and Last 2 Weeks

Now
39 °F

Passing clouds.


Feels Like: 36 °F
Forecast: 47 / 29 °F
Wind: 5 mph from Northwest

Location: Oberpfaffenhofen

Current Time: Mar 19, 2019 at 6:24:50 pm

Latest Report: Mar 19, 2019 at 5:50 pm


Visibility: N/A

Pressure: 30.33 "Hg (28.43 "Hg at 526m altitude)

Humidity: 61%

Dew Point: 27 °F

Location of MunichLocation

Past Weather in Munich — Graph

°F

Munich Temperature Yesterday

Maximum temperature yesterday: 52 °F (at 1:20 pm)
Minimum temperature yesterday: 30 °F (at 7:20 pm)
Average temperature yesterday: 38 °F

High & Low Weather Summary for the Past Weeks

 TemperatureHumidityPressure
High59 °F (Mar 16, 3:50 pm)100% (Mar 6, 6:50 am)30.30 "Hg (Mar 6, 6:50 am)
Low27 °F (Mar 19, 7:20 am)27% (Mar 12, 3:50 pm)29.47 "Hg (Mar 7, 6:50 am)
Average43 °F68%29.93 "Hg
* Reported Mar 4 4:20 pm — Mar 19 4:50 pm, Munich. Weather by CustomWeather, © 2019

Note: Actual official high and low records may vary slightly from our data, if they occured in-between our weather recording intervals... More about our weather records

Advertising

Munich Weather History for the Previous 24 Hours

Scroll right to see more
 ConditionsComfort  
Time TempWeatherWind HumidityBarometerVisibility
4:50 pm
Tue, Mar 19
46 °FSunny.8 mph46%30.30 "Hg10 mi
4:20 pm46 °FPassing clouds.5 mph46%30.30 "HgN/A
3:50 pm43 °FPassing clouds.8 mph57%30.30 "HgN/A
3:20 pm43 °FScattered clouds.8 mph53%30.30 "HgN/A
2:50 pm45 °FScattered clouds.6 mph49%30.30 "HgN/A
2:20 pm43 °FScattered clouds.7 mph53%30.30 "HgN/A
1:50 pm43 °FScattered clouds.6 mph57%30.30 "HgN/A
1:20 pm43 °FPartly sunny.3 mph53%30.30 "HgN/A
12:50 pm45 °FScattered clouds.6 mph49%30.30 "HgN/A
12:20 pm45 °FScattered clouds.3 mph53%30.30 "HgN/A
11:50 am45 °FScattered clouds.3 mph57%30.30 "HgN/A
11:20 am41 °FScattered clouds.7 mph70%30.30 "HgN/A
10:50 am45 °FScattered clouds.6 mph66%30.30 "HgN/A
10:20 am41 °FScattered clouds.3 mph76%30.30 "HgN/A
9:50 am39 °FScattered clouds.3 mph87%30.27 "HgN/A
9:20 am39 °FScattered clouds.3 mph81%30.27 "HgN/A
8:50 am37 °FPartly sunny.6 mph87%30.27 "HgN/A
8:20 am36 °FPartly sunny.6 mph87%30.27 "HgN/A
7:50 am43 °FSunny.2 mph81%30.27 "Hg10 mi
7:20 am27 °FSunny.3 mph100%30.24 "Hg10 mi
7:20 pm
Mon, Mar 18
30 °FClear.7 mph100%30.15 "Hg10 mi
6:50 pm32 °FClear.8 mph100%30.15 "Hg10 mi
6:20 pm34 °FScattered clouds.12 mph93%30.12 "HgN/A
Weather by CustomWeather, © 2019

See weather overview